Time,TemperatureF,DewpointF,PressureIn,WindDirection,WindDirectionDegrees,WindSpeedMPH,WindSpeedGustMPH,Humidity,HourlyPrecipIn,Conditions,Clouds,dailyrainin,SoftwareType,DateUTC
2013-06-06 00:03:00,75.0,-99.9,30.07,ESE,122,7.0,10.0,-999,-99.99,,,-99.99,,2013-06-06 04:03:00,
2013-06-06 00:13:00,74.0,-99.9,30.07,ESE,117,8.0,11.0,-999,-99.99,,,-99.99,,2013-06-06 04:13:00,
2013-06-06 00:23:00,74.0,-99.9,30.07,ESE,121,9.0,13.0,-999,-99.99,,,-99.99,,2013-06-06 04:23:00,
2013-06-06 00:33:00,74.0,-99.9,30.06,SE,132,6.0,11.0,-999,-99.99,,,-99.99,,2013-06-06 04:33:00,
2013-06-06 00:42:00,74.0,-99.9,30.06,SE,132,5.0,10.0,-999,-99.99,,,-99.99,,2013-06-06 04:42:00,
2013-06-06 00:53:00,74.0,-99.9,30.06,SE,132,7.0,12.0,-999,-99.99,,,-99.99,,2013-06-06 04:53:00,
2013-06-06 01:02:00,74.0,-99.9,30.06,SE,139,9.0,13.0,-999,-99.99,,,-99.99,,2013-06-06 05:02:00,
2013-06-06 01:12:00,74.0,-99.9,30.06,SE,139,10.0,13.0,-999,-99.99,,,-99.99,,2013-06-06 05:12:00,
2013-06-06 01:23:00,74.0,-99.9,30.06,SE,131,8.0,13.0,-999,-99.99,,,-99.99,,2013-06-06 05:23:00,
2013-06-06 01:32:00,74.0,-99.9,30.06,SE,142,11.0,14.0,-999,-99.99,,,-99.99,,2013-06-06 05:32:00,
2013-06-06 01:42:00,74.0,-99.9,30.05,SE,136,9.0,13.0,-999,-99.99,,,-99.99,,2013-06-06 05:42:00,
2013-06-06 01:52:00,74.0,-99.9,30.05,SE,133,8.0,11.0,-999,-99.99,,,-99.99,,2013-06-06 05:52:00,
2013-06-06 02:02:00,74.0,-99.9,30.05,SE,139,10.0,13.0,-999,-99.99,,,-99.99,,2013-06-06 06:02:00,
2013-06-06 02:12:00,74.0,-99.9,30.04,SE,140,10.0,13.0,-999,-99.99,,,-99.99,,2013-06-06 06:12:00,
2013-06-06 02:22:00,74.0,-99.9,30.04,SE,137,9.0,13.0,-999,-99.99,,,-99.99,,2013-06-06 06:22:00,
2013-06-06 02:33:00,74.0,-99.9,30.04,SE,135,9.0,13.0,-999,-99.99,,,-99.99,,2013-06-06 06:33:00,
2013-06-06 02:42:00,74.0,-99.9,30.04,SE,139,10.0,14.0,-999,-99.99,,,-99.99,,2013-06-06 06:42:00,
2013-06-06 02:52:00,74.0,-99.9,30.04,SE,140,10.0,14.0,-999,-99.99,,,-99.99,,2013-06-06 06:52:00,
2013-06-06 03:02:00,74.0,-99.9,30.03,SE,134,8.0,12.0,-999,-99.99,,,-99.99,,2013-06-06 07:02:00,
2013-06-06 03:12:00,74.0,-99.9,30.03,SE,141,11.0,14.0,-999,-99.99,,,-99.99,,2013-06-06 07:12:00,
2013-06-06 03:22:00,74.0,-99.9,30.03,SE,141,11.0,15.0,-999,-99.99,,,-99.99,,2013-06-06 07:22:00,
2013-06-06 03:33:00,74.0,-99.9,30.03,SE,142,10.0,13.0,-999,-99.99,,,-99.99,,2013-06-06 07:33:00,
2013-06-06 03:42:00,74.0,-99.9,30.03,SE,141,11.0,12.0,-999,-99.99,,,-99.99,,2013-06-06 07:42:00,
2013-06-06 03:52:00,74.0,-99.9,30.02,SE,143,9.0,13.0,-999,-99.99,,,-99.99,,2013-06-06 07:52:00,
2013-06-06 04:02:00,74.0,-99.9,30.01,SE,138,9.0,12.0,-999,-99.99,,,-99.99,,2013-06-06 08:02:00,
2013-06-06 04:12:00,74.0,-99.9,30.01,SE,139,10.0,15.0,-999,-99.99,,,-99.99,,2013-06-06 08:12:00,
2013-06-06 04:22:00,74.0,-99.9,30.01,SE,129,9.0,13.0,-999,-99.99,,,-99.99,,2013-06-06 08:22:00,
2013-06-06 04:32:00,74.0,-99.9,30.01,SE,143,11.0,14.0,-999,-99.99,,,-99.99,,2013-06-06 08:32:00,
2013-06-06 04:42:00,74.0,-99.9,30.01,SE,140,11.0,15.0,-999,-99.99,,,-99.99,,2013-06-06 08:42:00,
2013-06-06 04:52:00,74.0,-99.9,30.01,SE,142,10.0,14.0,-999,-99.99,,,-99.99,,2013-06-06 08:52:00,
2013-06-06 05:02:00,74.0,-99.9,30.01,SE,136,9.0,13.0,-999,-99.99,,,-99.99,,2013-06-06 09:02:00,
2013-06-06 05:12:00,74.0,-99.9,30.01,SE,139,9.0,13.0,-999,-99.99,,,-99.99,,2013-06-06 09:12:00,
2013-06-06 05:22:00,74.0,-99.9,30.00,SE,125,8.0,13.0,-999,-99.99,,,-99.99,,2013-06-06 09:22:00,
2013-06-06 05:33:00,74.0,-99.9,30.00,SE,130,8.0,12.0,-999,-99.99,,,-99.99,,2013-06-06 09:33:00,
2013-06-06 05:43:00,74.0,-99.9,29.99,SE,124,9.0,13.0,-999,-99.99,,,-99.99,,2013-06-06 09:43:00,
2013-06-06 05:53:00,74.0,-99.9,29.99,ESE,121,8.0,13.0,-999,-99.99,,,-99.99,,2013-06-06 09:53:00,
2013-06-06 06:03:00,74.0,-99.9,29.99,ESE,122,9.0,14.0,-999,-99.99,,,-99.99,,2013-06-06 10:03:00,
2013-06-06 06:12:00,73.0,-99.9,29.99,ESE,120,9.0,14.0,-999,-99.99,,,-99.99,,2013-06-06 10:12:00,
2013-06-06 06:23:00,74.0,-99.9,29.99,ESE,121,9.0,13.0,-999,-99.99,,,-99.99,,2013-06-06 10:23:00,
2013-06-06 06:33:00,74.0,-99.9,29.99,ESE,117,8.0,12.0,-999,-99.99,,,-99.99,,2013-06-06 10:33:00,
2013-06-06 06:42:00,74.0,-99.9,29.99,ESE,119,9.0,13.0,-999,-99.99,,,-99.99,,2013-06-06 10:42:00,
2013-06-06 06:53:00,74.0,-99.9,29.99,ESE,119,9.0,12.0,-999,-99.99,,,-99.99,,2013-06-06 10:53:00,
2013-06-06 07:03:00,74.0,-99.9,29.99,ESE,122,8.0,12.0,-999,-99.99,,,-99.99,,2013-06-06 11:03:00,
2013-06-06 07:12:00,74.0,-99.9,29.99,ESE,121,9.0,14.0,-999,-99.99,,,-99.99,,2013-06-06 11:12:00,
2013-06-06 07:23:00,74.0,-99.9,30.00,SE,128,9.0,13.0,-999,-99.99,,,-99.99,,2013-06-06 11:23:00,
2013-06-06 07:32:00,75.0,-99.9,30.00,SE,124,8.0,11.0,-999,-99.99,,,-99.99,,2013-06-06 11:32:00,
2013-06-06 07:42:00,75.0,-99.9,30.00,ESE,123,8.0,12.0,-999,-99.99,,,-99.99,,2013-06-06 11:42:00,
2013-06-06 07:52:00,75.0,-99.9,30.00,ESE,120,9.0,13.0,-999,-99.99,,,-99.99,,2013-06-06 11:52:00,
2013-06-06 08:03:00,75.0,-99.9,30.00,ESE,121,10.0,13.0,-999,-99.99,,,-99.99,,2013-06-06 12:03:00,
2013-06-06 08:13:00,75.0,-99.9,30.00,SE,124,9.0,13.0,-999,-99.99,,,-99.99,,2013-06-06 12:13:00,
2013-06-06 08:23:00,76.0,-99.9,30.01,ESE,122,10.0,13.0,-999,-99.99,,,-99.99,,2013-06-06 12:23:00,
2013-06-06 08:33:00,76.0,-99.9,30.01,ESE,121,8.0,12.0,-999,-99.99,,,-99.99,,2013-06-06 12:33:00,
2013-06-06 08:43:00,76.0,-99.9,30.01,SE,125,8.0,13.0,-999,-99.99,,,-99.99,,2013-06-06 12:43:00,
2013-06-06 08:53:00,76.0,-99.9,30.01,SE,125,9.0,13.0,-999,-99.99,,,-99.99,,2013-06-06 12:53:00,
2013-06-06 09:03:00,76.0,-99.9,30.01,ESE,123,10.0,13.0,-999,-99.99,,,-99.99,,2013-06-06 13:03:00,
2013-06-06 09:13:00,76.0,-99.9,30.01,ESE,120,11.0,15.0,-999,-99.99,,,-99.99,,2013-06-06 13:13:00,
2013-06-06 09:23:00,76.0,-99.9,30.00,ESE,123,10.0,14.0,-999,-99.99,,,-99.99,,2013-06-06 13:23:00,
2013-06-06 09:33:00,76.0,-99.9,30.00,ESE,121,12.0,16.0,-999,-99.99,,,-99.99,,2013-06-06 13:33:00,
2013-06-06 09:43:00,76.0,-99.9,30.00,ESE,122,11.0,16.0,-999,-99.99,,,-99.99,,2013-06-06 13:43:00,
2013-06-06 09:53:00,77.0,-99.9,30.00,SE,125,9.0,14.0,-999,-99.99,,,-99.99,,2013-06-06 13:53:00,
2013-06-06 10:03:00,76.0,-99.9,30.00,SE,128,10.0,15.0,-999,-99.99,,,-99.99,,2013-06-06 14:03:00,
2013-06-06 10:13:00,77.0,-99.9,30.00,SE,126,10.0,13.0,-999,-99.99,,,-99.99,,2013-06-06 14:13:00,
2013-06-06 10:23:00,76.0,-99.9,30.00,SE,127,10.0,16.0,-999,-99.99,,,-99.99,,2013-06-06 14:23:00,
2013-06-06 10:33:00,77.0,-99.9,30.00,ESE,120,10.0,14.0,-999,-99.99,,,-99.99,,2013-06-06 14:33:00,
2013-06-06 10:43:00,77.0,-99.9,30.00,SE,125,11.0,15.0,-999,-99.99,,,-99.99,,2013-06-06 14:43:00,
2013-06-06 10:53:00,76.0,-99.9,30.00,SE,124,11.0,15.0,-999,-99.99,,,-99.99,,2013-06-06 14:53:00,
2013-06-06 11:03:00,77.0,-99.9,30.01,SE,124,9.0,15.0,-999,-99.99,,,-99.99,,2013-06-06 15:03:00,
2013-06-06 11:13:00,77.0,-99.9,30.01,SE,141,10.0,14.0,-999,-99.99,,,-99.99,,2013-06-06 15:13:00,
2013-06-06 11:23:00,76.0,-99.9,30.01,SE,137,11.0,16.0,-999,-99.99,,,-99.99,,2013-06-06 15:23:00,
2013-06-06 11:33:00,77.0,-99.9,30.01,SE,136,10.0,14.0,-999,-99.99,,,-99.99,,2013-06-06 15:33:00,
2013-06-06 11:43:00,77.0,-99.9,30.01,SE,124,11.0,15.0,-999,-99.99,,,-99.99,,2013-06-06 15:43:00,
2013-06-06 11:53:00,78.0,-99.9,30.01,SE,130,9.0,15.0,-999,-99.99,,,-99.99,,2013-06-06 15:53:00,
2013-06-06 12:03:00,77.0,-99.9,30.01,SE,143,13.0,17.0,-999,-99.99,,,-99.99,,2013-06-06 16:03:00,
2013-06-06 12:13:00,77.0,-99.9,30.01,SE,139,12.0,16.0,-999,-99.99,,,-99.99,,2013-06-06 16:13:00,
2013-06-06 12:23:00,76.0,-99.9,30.01,SE,140,13.0,16.0,-999,-99.99,,,-99.99,,2013-06-06 16:23:00,
2013-06-06 12:34:00,76.0,-99.9,30.01,SE,143,12.0,16.0,-999,-99.99,,,-99.99,,2013-06-06 16:34:00,
2013-06-06 12:44:00,76.0,-99.9,30.00,SE,143,12.0,16.0,-999,-99.99,,,-99.99,,2013-06-06 16:44:00,
2013-06-06 12:53:00,77.0,-99.9,30.00,SE,141,14.0,18.0,-999,-99.99,,,-99.99,,2013-06-06 16:53:00,
2013-06-06 13:03:00,77.0,-99.9,30.00,SE,141,14.0,17.0,-999,-99.99,,,-99.99,,2013-06-06 17:03:00,
2013-06-06 13:13:00,77.0,-99.9,30.00,SE,140,14.0,18.0,-999,-99.99,,,-99.99,,2013-06-06 17:13:00,
2013-06-06 13:23:00,77.0,-99.9,29.99,SE,140,13.0,16.0,-999,-99.99,,,-99.99,,2013-06-06 17:23:00,
2013-06-06 13:33:00,77.0,-99.9,29.98,SE,142,12.0,15.0,-999,-99.99,,,-99.99,,2013-06-06 17:33:00,
2013-06-06 13:43:00,77.0,-99.9,29.98,SE,141,11.0,16.0,-999,-99.99,,,-99.99,,2013-06-06 17:43:00,
2013-06-06 13:53:00,77.0,-99.9,29.98,SE,145,12.0,17.0,-999,-99.99,,,-99.99,,2013-06-06 17:53:00,
2013-06-06 14:03:00,77.0,-99.9,29.98,SE,139,13.0,17.0,-999,-99.99,,,-99.99,,2013-06-06 18:03:00,
2013-06-06 14:13:00,77.0,-99.9,29.98,SE,142,13.0,17.0,-999,-99.99,,,-99.99,,2013-06-06 18:13:00,
2013-06-06 14:23:00,78.0,-99.9,29.97,SE,136,12.0,16.0,-999,-99.99,,,-99.99,,2013-06-06 18:23:00,
2013-06-06 14:33:00,77.0,-99.9,29.97,SE,136,12.0,16.0,-999,-99.99,,,-99.99,,2013-06-06 18:33:00,
2013-06-06 14:43:00,77.0,-99.9,29.97,SE,142,12.0,16.0,-999,-99.99,,,-99.99,,2013-06-06 18:43:00,
2013-06-06 14:53:00,77.0,-99.9,29.96,SE,144,14.0,18.0,-999,-99.99,,,-99.99,,2013-06-06 18:53:00,
2013-06-06 15:03:00,77.0,-99.9,29.96,SE,144,11.0,18.0,-999,-99.99,,,-99.99,,2013-06-06 19:03:00,
2013-06-06 15:13:00,77.0,-99.9,29.96,SE,143,12.0,17.0,-999,-99.99,,,-99.99,,2013-06-06 19:13:00,
2013-06-06 15:23:00,77.0,-99.9,29.96,SE,144,11.0,16.0,-999,-99.99,,,-99.99,,2013-06-06 19:23:00,
2013-06-06 15:34:00,77.0,-99.9,29.95,SE,141,15.0,18.0,-999,-99.99,,,-99.99,,2013-06-06 19:34:00,
2013-06-06 15:43:00,77.0,-99.9,29.95,SE,140,13.0,16.0,-999,-99.99,,,-99.99,,2013-06-06 19:43:00,
2013-06-06 15:53:00,77.0,-99.9,29.95,SE,142,13.0,16.0,-999,-99.99,,,-99.99,,2013-06-06 19:53:00,
2013-06-06 16:03:00,77.0,-99.9,29.95,SE,140,14.0,17.0,-999,-99.99,,,-99.99,,2013-06-06 20:03:00,
2013-06-06 16:13:00,76.0,-99.9,29.94,SE,138,12.0,16.0,-999,-99.99,,,-99.99,,2013-06-06 20:13:00,
2013-06-06 16:23:00,77.0,-99.9,29.94,SE,137,10.0,16.0,-999,-99.99,,,-99.99,,2013-06-06 20:23:00,
2013-06-06 16:33:00,77.0,-99.9,29.94,SE,136,11.0,17.0,-999,-99.99,,,-99.99,,2013-06-06 20:33:00,
2013-06-06 16:43:00,77.0,-99.9,29.94,SE,138,11.0,14.0,-999,-99.99,,,-99.99,,2013-06-06 20:43:00,
2013-06-06 16:53:00,76.0,-99.9,29.93,SE,139,13.0,17.0,-999,-99.99,,,-99.99,,2013-06-06 20:53:00,
2013-06-06 17:03:00,76.0,-99.9,29.93,SE,135,11.0,15.0,-999,-99.99,,,-99.99,,2013-06-06 21:03:00,
2013-06-06 17:13:00,76.0,-99.9,29.93,SE,135,10.0,15.0,-999,-99.99,,,-99.99,,2013-06-06 21:13:00,
2013-06-06 17:23:00,77.0,-99.9,29.92,SE,129,8.0,14.0,-999,-99.99,,,-99.99,,2013-06-06 21:23:00,
2013-06-06 17:33:00,76.0,-99.9,29.92,SE,124,10.0,14.0,-999,-99.99,,,-99.99,,2013-06-06 21:33:00,
2013-06-06 17:44:00,76.0,-99.9,29.91,SE,124,9.0,13.0,-999,-99.99,,,-99.99,,2013-06-06 21:44:00,
2013-06-06 17:53:00,76.0,-99.9,29.91,SE,132,10.0,14.0,-999,-99.99,,,-99.99,,2013-06-06 21:53:00,
2013-06-06 18:03:00,76.0,-99.9,29.91,SE,135,9.0,13.0,-999,-99.99,,,-99.99,,2013-06-06 22:03:00,
2013-06-06 18:13:00,76.0,-99.9,29.91,SE,131,9.0,14.0,-999,-99.99,,,-99.99,,2013-06-06 22:13:00,
2013-06-06 18:23:00,76.0,-99.9,29.90,SE,135,11.0,15.0,-999,-99.99,,,-99.99,,2013-06-06 22:23:00,
2013-06-06 18:33:00,76.0,-99.9,29.90,SE,132,10.0,16.0,-999,-99.99,,,-99.99,,2013-06-06 22:33:00,
2013-06-06 18:43:00,76.0,-99.9,29.90,SE,129,10.0,15.0,-999,-99.99,,,-99.99,,2013-06-06 22:43:00,
2013-06-06 18:53:00,75.0,-99.9,29.89,SE,126,11.0,17.0,-999,-99.99,,,-99.99,,2013-06-06 22:53:00,
2013-06-06 19:03:00,75.0,-99.9,29.89,SE,139,13.0,17.0,-999,-99.99,,,-99.99,,2013-06-06 23:03:00,
2013-06-06 19:13:00,75.0,-99.9,29.89,SE,138,13.0,16.0,-999,-99.99,,,-99.99,,2013-06-06 23:13:00,
2013-06-06 19:22:00,74.0,-99.9,29.89,SE,138,10.0,17.0,-999,-99.99,,,-99.99,,2013-06-06 23:22:00,
2013-06-06 19:33:00,74.0,-99.9,29.89,SSE,157,6.0,13.0,-999,-99.99,,,-99.99,,2013-06-06 23:33:00,
2013-06-06 19:43:00,73.0,-99.9,29.89,SSE,155,9.0,13.0,-999,-99.99,,,-99.99,,2013-06-06 23:43:00,
2013-06-06 19:52:00,74.0,-99.9,29.89,SSE,162,9.0,13.0,-999,-99.99,,,-99.99,,2013-06-06 23:52:00,
2013-06-06 20:02:00,74.0,-99.9,29.89,SSE,163,14.0,17.0,-999,-99.99,,,-99.99,,2013-06-07 00:02:00,
2013-06-06 20:13:00,75.0,-99.9,29.89,SSE,161,13.0,17.0,-999,-99.99,,,-99.99,,2013-06-07 00:13:00,
2013-06-06 20:22:00,75.0,-99.9,29.89,SSE,158,13.0,17.0,-999,-99.99,,,-99.99,,2013-06-07 00:22:00,
2013-06-06 20:32:00,75.0,-99.9,29.89,SSE,159,14.0,17.0,-999,-99.99,,,-99.99,,2013-06-07 00:32:00,
2013-06-06 20:43:00,75.0,-99.9,29.89,SSE,163,12.0,18.0,-999,-99.99,,,-99.99,,2013-06-07 00:43:00,
2013-06-06 20:52:00,76.0,-99.9,29.89,SSE,161,12.0,17.0,-999,-99.99,,,-99.99,,2013-06-07 00:52:00,
2013-06-06 21:03:00,75.0,-99.9,29.89,SSE,168,15.0,18.0,-999,-99.99,,,-99.99,,2013-06-07 01:03:00,
2013-06-06 21:13:00,76.0,-99.9,29.89,SSE,167,11.0,16.0,-999,-99.99,,,-99.99,,2013-06-07 01:13:00,
2013-06-06 21:22:00,76.0,-99.9,29.89,SSE,165,11.0,16.0,-999,-99.99,,,-99.99,,2013-06-07 01:22:00,
2013-06-06 21:33:00,75.0,-99.9,29.89,SSE,162,11.0,16.0,-999,-99.99,,,-99.99,,2013-06-07 01:33:00,
2013-06-06 21:42:00,75.0,-99.9,29.89,SSE,162,11.0,16.0,-999,-99.99,,,-99.99,,2013-06-07 01:42:00,
2013-06-06 21:53:00,75.0,-99.9,29.90,SSE,165,12.0,17.0,-999,-99.99,,,-99.99,,2013-06-07 01:53:00,
2013-06-06 22:02:00,76.0,-99.9,29.90,South,181,12.0,17.0,-999,-99.99,,,-99.99,,2013-06-07 02:02:00,
2013-06-06 22:12:00,76.0,-99.9,29.90,South,185,8.0,16.0,-999,-99.99,,,-99.99,,2013-06-07 02:12:00,
2013-06-06 22:22:00,75.0,-99.9,29.90,SSW,196,8.0,13.0,-999,-99.99,,,-99.99,,2013-06-07 02:22:00,
2013-06-06 22:32:00,75.0,-99.9,29.91,SSW,206,10.0,16.0,-999,-99.99,,,-99.99,,2013-06-07 02:32:00,
2013-06-06 22:42:00,75.0,-99.9,29.91,SSW,208,13.0,17.0,-999,-99.99,,,-99.99,,2013-06-07 02:42:00,
2013-06-06 22:52:00,75.0,-99.9,29.91,SSW,203,11.0,15.0,-999,-99.99,,,-99.99,,2013-06-07 02:52:00,
2013-06-06 23:02:00,75.0,-99.9,29.91,SSW,209,10.0,15.0,-999,-99.99,,,-99.99,,2013-06-07 03:02:00,
2013-06-06 23:12:00,75.0,-99.9,29.91,SSW,204,9.0,15.0,-999,-99.99,,,-99.99,,2013-06-07 03:12:00,
2013-06-06 23:22:00,75.0,-99.9,29.91,SSW,200,10.0,15.0,-999,-99.99,,,-99.99,,2013-06-07 03:22:00,
2013-06-06 23:33:00,75.0,-99.9,29.91,SSW,203,8.0,13.0,-999,-99.99,,,-99.99,,2013-06-07 03:33:00,
2013-06-06 23:44:00,75.0,-99.9,29.91,SSW,192,6.0,11.0,-999,-99.99,,,-99.99,,2013-06-07 03:44:00,
2013-06-06 23:53:00,75.0,-99.9,29.91,South,191,5.0,10.0,-999,-99.99,,,-99.99,,2013-06-07 03:53:00,